This is the latest recevied weather packets stored in our database for station/object DB0TV-13. If no packets are shown the sender has not sent any weather packets the latest 10 day(s).
| Time | Temp. | Humidity | Pressure | Rain* | Wind** | Luminosity | Snow |
|---|---|---|---|---|---|---|---|
| 1778078420 | 7.22° C | 98% | 1006.9 hPa | 0.51 mm | - | 84 W/m² | - |
| 1778077820 | 7.22° C | 98% | 1006.9 hPa | 0.51 mm | - | 96 W/m² | - |
| 1778077220 | 7.22° C | 98% | 1006.9 hPa | 0.51 mm | - | 214 W/m² | - |
| 1778076620 | 7.22° C | 98% | 1006.9 hPa | 0.51 mm | - | 127 W/m² | - |
| 1778076020 | 7.22° C | 98% | 1006.8 hPa | 0.76 mm | - | 146 W/m² | - |
| 1778075420 | 7.22° C | 98% | 1006.8 hPa | 1.02 mm | - | 127 W/m² | - |
| 1778074820 | 7.22° C | 98% | 1006.8 hPa | 1.02 mm | - | 115 W/m² | - |
| 1778074220 | 7.22° C | 98% | 1006.7 hPa | 1.02 mm | - | 136 W/m² | - |
| 1778073620 | 7.22° C | 98% | 1006.7 hPa | 1.02 mm | - | 126 W/m² | - |
| 1778073020 | 7.22° C | 98% | 1006.6 hPa | 1.02 mm | - | 125 W/m² | - |
| 1778072420 | 7.22° C | 98% | 1006.5 hPa | 1.02 mm | - | 113 W/m² | - |
| 1778071820 | 7.22° C | 98% | 1006.5 hPa | 1.02 mm | - | 107 W/m² | - |
| 1778071220 | 7.22° C | 98% | 1006.5 hPa | 0.76 mm | - | 85 W/m² | - |
| 1778070619 | 7.22° C | 98% | 1006.4 hPa | 0.76 mm | - | 99 W/m² | - |
| 1778070020 | 7.78° C | 98% | 1006.4 hPa | 0.51 mm | - | 96 W/m² | - |
| 1778069420 | 7.78° C | 98% | 1006.3 hPa | 0.51 mm | - | 68 W/m² | - |
| 1778068820 | 7.78° C | 98% | 1006.1 hPa | 0.25 mm | - | 59 W/m² | - |
| 1778068220 | 7.78° C | 98% | 1006.2 hPa | 0 mm | - | 81 W/m² | - |
| 1778067620 | 7.78° C | 98% | 1006 hPa | 0 mm | - | 67 W/m² | - |
| 1778067020 | 7.78° C | 98% | 1005.9 hPa | 0 mm | - | 71 W/m² | - |
| 1778066420 | 7.78° C | 98% | 1005.8 hPa | 0 mm | - | 76 W/m² | - |
| 1778065819 | 8.33° C | 98% | 1005.8 hPa | 0 mm | - | 69 W/m² | - |
| 1778065219 | 8.33° C | 98% | 1006 hPa | 0.25 mm | - | 67 W/m² | - |
| 1778064620 | 8.33° C | 98% | 1005.9 hPa | 0.25 mm | - | 99 W/m² | - |
| 1778064020 | 8.33° C | 98% | 1006 hPa | 0.25 mm | - | 84 W/m² | - |
* Rain latest hour (hover to see other rain measurements)
** Current wind speed in m/s (hover to see current wind gust speed)